DateTimeUTC,F1_A11,F1_S11,BsB_S11,BsG_S11,BsR_S11,BbsB_S11,BbsG_S11,BbsR_S11,BaB_A11,BaG_A11,BaR_A11,Tu_S11,T_S11,Uu_S11,U_S11,P_S11,T1_A11
2021-11-05T13:00:00Z,00000200,21000000,,,,,,,-000.13,0000.28,-000.12,18.8,25.9,,00.0,0650.5,31.1
2021-11-05T13:01:00Z,00000200,21000000,,,,,,,0000.70,0000.58,0000.63,18.8,25.9,,00.0,0650.5,31.1
2021-11-05T13:02:00Z,00000200,21000000,,,,,,,-000.23,0000.29,0000.04,18.7,25.9,,00.0,0650.5,31.1
2021-11-05T13:03:00Z,00000200,61000000,,,,,,,0000.87,0000.29,0000.40,18.7,25.9,,00.0,0650.5,31.1
2021-11-05T13:04:00Z,00000200,41000000,0000.18,0000.26,0000.00,0000.77,-000.15,0000.14,0000.24,0000.15,0000.19,18.8,25.6,,00.0,0651.4,31.1
2021-11-05T13:05:00Z,00000200,01000000,-000.08,0000.34,-000.10,0000.06,-000.03,-000.03,0000.75,0000.92,0000.52,18.9,25.6,,00.0,0651.5,31.1
2021-11-05T13:06:00Z,00000200,01000000,-000.37,-000.02,0000.35,0000.11,-000.13,0000.07,0000.38,0000.58,0000.79,19.0,25.6,,00.0,0651.5,31.1
2021-11-05T13:07:00Z,00000200,01000000,0000.61,0000.21,0000.21,-000.36,0000.08,0000.12,0000.56,0000.45,-000.07,19.0,25.7,,00.0,0651.5,31.1
2021-11-05T13:08:00Z,00000200,01000000,0000.31,-000.00,-000.07,0000.21,-000.14,-000.16,0000.65,0000.65,0000.58,19.1,25.7,,00.0,0651.5,31.1
2021-11-05T13:09:00Z,00000200,01000000,0000.87,0000.40,0000.16,-000.05,0000.04,0000.11,0000.60,0000.34,0000.35,19.2,25.8,,00.0,0651.5,31.2
2021-11-05T13:10:00Z,00000200,01000000,0000.10,0000.07,0000.20,0000.56,0000.15,0000.23,0000.12,-000.05,-000.08,19.2,25.8,,00.0,0651.5,31.2
2021-11-05T13:11:00Z,00000200,01000000,-000.80,0000.00,0000.09,-000.03,0000.07,0000.16,0000.67,0001.10,0000.93,19.3,25.8,,00.0,0651.5,31.2
2021-11-05T13:12:00Z,00000200,01000000,-000.37,0000.18,0000.11,0000.36,0000.10,0000.02,0000.63,0000.09,0000.45,19.3,25.9,,00.0,0651.5,31.2
2021-11-05T13:13:00Z,00000200,01000000,0000.46,0000.22,0000.27,-000.19,-000.15,0000.18,0000.17,0000.42,0000.14,19.3,25.8,,00.0,0651.4,31.2
2021-11-05T13:14:00Z,00000200,01000000,-000.42,0000.19,0000.24,0000.64,0000.04,0000.10,0000.47,0000.64,0000.27,19.2,25.8,,00.0,0651.4,31.1
2021-11-05T13:15:00Z,00000200,01000000,0000.24,0000.42,-000.23,0000.35,-000.18,-000.17,0000.42,0000.02,0000.06,19.1,25.8,,00.0,0651.4,31.1
2021-11-05T13:16:00Z,00000200,01000000,0000.52,-000.14,0000.42,0000.67,0000.07,0000.34,0000.39,0000.06,0000.23,19.1,25.7,,00.0,0651.4,31.1
2021-11-05T13:17:00Z,00000200,01000000,0000.42,0000.38,0000.26,0000.42,0000.05,0000.17,0001.36,0001.45,0001.29,19.0,25.6,,00.0,0651.4,31.1
2021-11-05T13:18:00Z,00000200,01000000,0002.70,0001.71,0001.17,0000.92,0000.83,0000.38,0024.45,0022.77,0018.42,19.0,25.6,,00.0,0651.3,31.1
2021-11-05T13:19:00Z,00000200,01000000,0011.47,0007.95,0005.03,0002.43,0001.80,0001.43,0117.96,0109.61,0089.70,19.0,25.6,,00.0,0651.3,31.1
2021-11-05T13:20:00Z,00000200,01000000,0012.86,0009.65,0006.67,0003.55,0002.59,0002.04,0135.04,0125.58,0103.33,19.0,25.7,,00.0,0651.3,31.1
2021-11-05T13:21:00Z,00000200,01000000,0026.58,0018.46,0012.15,0005.83,0004.81,0003.22,0276.23,0258.89,0212.49,19.1,25.7,,00.0,0651.3,31.1
2021-11-05T13:22:00Z,00000200,01000000,0017.38,0012.58,0008.46,0003.74,0002.89,0002.17,0190.21,0178.18,0147.01,19.1,25.7,,00.0,0651.4,31.1
2021-11-05T13:23:00Z,00000200,01000000,0006.85,0004.87,0002.83,0001.31,0001.24,0001.09,0073.05,0068.44,0056.11,19.1,25.7,,00.0,0651.3,31.1
2021-11-05T13:24:00Z,00000200,01000000,0011.42,0009.02,0005.68,0002.83,0002.03,0001.49,0118.24,0110.07,0090.81,19.2,25.8,,00.0,0651.4,31.1
2021-11-05T13:25:00Z,00000200,01000000,0010.10,0008.10,0005.28,0002.20,0001.97,0001.43,0116.50,0109.15,0090.08,19.2,25.8,,00.0,0651.4,31.1
2021-11-05T13:26:00Z,00000200,01000000,0006.67,0005.51,0003.51,0001.99,0001.07,0001.05,0076.44,0071.83,0059.54,19.2,25.8,,00.0,0651.3,31.2
2021-11-05T13:27:00Z,00000200,01000000,0004.49,0003.00,0002.06,0001.48,0000.99,0000.44,0043.74,0041.15,0034.11,19.1,25.8,,00.0,0651.3,31.1
2021-11-05T13:28:00Z,00000200,01000000,0003.92,0002.98,0001.91,0001.16,0000.60,0000.23,0041.61,0038.94,0032.15,19.1,25.7,,00.0,0651.3,31.1
2021-11-05T13:29:00Z,00000200,01000000,0008.47,0005.93,0004.11,0002.10,0001.42,0001.03,0082.12,0076.66,0062.45,19.0,25.7,,00.0,0651.4,31.1
2021-11-05T13:30:00Z,00000200,01000000,0009.17,0006.63,0004.11,0001.94,0001.58,0001.05,0101.66,0094.64,0078.14,19.0,25.6,,00.0,0651.3,31.1
2021-11-05T13:31:00Z,00040200,01000000,0010.43,0007.46,0004.62,0002.78,0002.16,0001.05,0108.47,0101.37,0083.40,18.9,25.6,,00.0,0651.3,31.1
2021-11-05T13:32:00Z,00040200,01000000,0012.91,0009.79,0006.01,0002.74,0002.61,0001.27,0134.00,0125.29,0102.96,18.9,25.6,,00.0,0651.3,31.1
2021-11-05T13:33:00Z,00040200,01000000,0012.19,0009.06,0005.68,0002.73,0002.13,0001.42,0124.41,0116.39,0096.08,18.9,25.5,,00.0,0651.3,31.1
2021-11-05T13:34:00Z,00040200,01000000,0010.81,0008.92,0005.82,0002.96,0002.17,0001.66,0119.73,0112.46,0092.72,18.9,25.5,,00.0,0651.3,31.1
2021-11-05T13:35:00Z,00040200,01000000,0009.23,0006.79,0004.23,0002.59,0001.84,0000.89,0098.10,0091.99,0076.34,18.9,25.6,,00.0,0651.3,31.1
2021-11-05T13:36:00Z,00040200,01000000,0005.10,0004.17,0002.85,0001.38,0001.06,0000.83,0060.43,0056.40,0047.05,19.0,25.6,,00.0,0651.3,31.1
2021-11-05T13:37:00Z,00040200,01000000,0003.57,0002.59,0001.70,0000.59,0000.83,0000.28,0036.71,0034.50,0028.57,19.0,25.6,,00.0,0651.3,31.1
2021-11-05T13:38:00Z,00040200,01000000,0003.80,0003.02,0001.88,0001.45,0000.50,0000.64,0039.00,0036.71,0030.11,19.1,25.7,,00.0,0651.3,31.1
2021-11-05T13:39:00Z,00040200,01000000,0007.12,0005.05,0003.28,0001.30,0001.25,0001.01,0065.36,0061.04,0050.46,19.1,25.7,,00.0,0651.3,31.2
2021-11-05T13:40:00Z,00140200,01000000,0010.92,0007.37,0004.85,0002.39,0001.90,0001.19,0089.87,0083.73,0068.82,19.1,25.7,,00.0,0651.3,31.2
2021-11-05T13:40:45Z,00140200,01000000,0010.92,0007.37,0004.85,0002.39,0001.90,0001.19,,,,19.1,25.7,,00.0,0651.3,31.2
2021-11-05T13:40:46Z,,01000000,0010.92,0007.37,0004.85,0002.39,0001.90,0001.19,,,,19.1,25.7,,00.0,0651.3,
2021-11-05T13:40:53Z,00000200,01000000,0010.92,0007.37,0004.85,0002.39,0001.90,0001.19,,,,19.1,25.7,,00.0,0651.3,31.1
2021-11-05T13:41:00Z,00000200,01000000,0010.32,0007.14,0004.76,0002.84,0001.79,0000.79,0121.61,0112.84,0088.59,19.2,25.8,,00.0,0651.3,31.1
2021-11-05T13:42:00Z,00000200,01000000,0001.75,0001.38,0001.25,0001.11,0000.37,0000.16,0045.70,0042.23,0033.42,19.2,25.7,,00.0,0651.3,31.1
2021-11-05T13:43:00Z,00000200,01000000,0000.69,0000.86,0001.21,0000.99,-000.03,0000.27,0018.39,0016.77,0013.02,19.1,25.7,,00.0,0651.3,31.1
2021-11-05T13:44:00Z,00000200,01000000,0001.24,0001.32,0000.61,0000.36,0000.29,-000.07,0021.71,0019.76,0015.66,19.1,25.7,,00.0,0651.2,31.1
2021-11-05T13:45:00Z,00000200,01000000,0002.33,0001.43,0000.96,0001.00,0000.26,0000.24,0027.95,0025.53,0019.51,19.0,25.7,,00.0,0651.2,31.0
2021-11-05T13:46:00Z,00000200,01000000,0001.39,0001.83,0000.80,0000.48,0000.18,0000.20,0030.91,0028.37,0022.68,19.0,25.6,,00.0,0651.2,31.0
2021-11-05T13:47:00Z,00000200,01000000,0001.51,0001.23,0000.88,0000.72,0000.31,0000.30,0026.41,0024.71,0018.99,19.0,25.6,,00.0,0651.2,31.0
2021-11-05T13:48:00Z,00000200,01000000,0001.76,0001.23,0000.75,0001.09,0000.34,0000.09,0022.33,0019.85,0015.83,19.0,25.6,,00.0,0651.2,31.0
2021-11-05T13:49:00Z,00000200,01000000,0001.94,0001.10,0000.72,0000.38,0000.30,0000.01,0020.76,0019.18,0015.04,19.0,25.6,,00.0,0651.2,31.0
2021-11-05T13:50:00Z,00000200,01000000,0000.97,0000.68,0000.63,0000.79,-000.09,0000.22,0012.42,0011.69,0008.98,19.0,25.6,,00.0,0651.2,31.0
2021-11-05T13:51:00Z,00000200,01000000,0001.21,0000.85,0000.16,0000.33,0000.02,-000.06,0009.67,0008.77,0006.85,19.0,25.6,,00.0,0651.2,31.1
2021-11-05T13:52:00Z,00000200,01000000,0000.29,0000.51,0000.57,0000.51,0000.00,0000.06,0005.30,0004.83,0003.93,19.1,25.7,,00.0,0651.2,31.1
2021-11-05T13:53:00Z,00000200,01000000,-000.53,0000.19,0000.22,-000.02,-000.00,-000.29,0002.18,0002.31,0001.77,19.2,25.7,,00.0,0651.2,31.1
2021-11-05T13:54:00Z,00000200,01000000,0000.22,0000.28,0000.16,0000.25,-000.34,-000.22,0001.65,0001.25,0000.85,19.2,25.7,,00.0,0651.2,31.1
2021-11-05T13:55:00Z,00000200,01000000,0000.58,-000.04,0000.08,0000.62,0000.06,-000.22,0001.29,0000.86,0001.07,19.2,25.8,,00.0,0651.2,31.1
2021-11-05T13:56:00Z,00000200,01000000,-000.02,0000.02,0000.37,0000.48,0000.02,0000.08,0001.17,0001.19,0000.62,19.2,25.7,,00.0,0651.2,31.1
2021-11-05T13:57:00Z,00000200,41000000,,,,,,,0001.48,0001.62,0001.11,19.2,25.8,,00.0,0651.2,31.1
2021-11-05T13:58:00Z,00000200,61000000,,,,,,,0000.89,0000.75,0000.84,18.9,25.8,,00.0,0650.3,31.1
2021-11-05T13:59:00Z,00000200,21000000,,,,,,,0001.49,0000.82,0000.64,18.8,25.9,,00.0,0650.3,31.0
